Погода в Орлецах

Россия / Кировская область     59°44′58″N   51°04′05″E
темп.,
°C
ветер,
м/с
пор.,
м/с
влажн.,
%
обл.,
%
осадки,
мм/ч
давл.,
гПа
погр.,
м
6 марта, сб
сб600:00−21зсз239912 0.0 100538
03:00−22з239936 0.0 100761
06:00−22з239999 0.0 100863
09:00−16з259599 0.1 1009295
12:00−13з358899 0.1 1009743
15:00−12з3588100 0.2 1008857
18:00−16з2296100 0.1 100942
21:00−18з229898 0.1 100923
7 марта, вс
вс700:00−20зюз229992 0.0 100920
03:00−23юз1210080 0.0 100920
06:00−23ююз229975 0.0 100820
09:00−18ююз249642 0.0 1008222
12:00−12ю249088 0.0 1006510
15:00−11ю348994 0.1 1004712
18:00−15юв2397100 0.1 100361
21:00−17юв3797100 0.1 1002160
8 марта, пн
пн800:00−17вюв369799 0.0 1000175
03:00−16в499699 0.1 998294
06:00−15в4995100 0.6 996394
09:00−14в4893100 0.9 995493
12:00−12всв4793100 0.4 995620
15:00−11всв4793100 1.0 996649
18:00−12св4895100 0.4 997462
21:00−14ссв4994100 0.6 999434
9 марта, вт
вт900:00−16с4995100 0.1 1001381
03:00−18с3995100 0.1 1003386
06:00−19с4896100 0.1 1005362
09:00−20ссз369699 0.2 1008325
12:00−19ссз3594100 0.1 1010403
15:00−18ссз3692100 0.1 1012496
18:00−22ссз3797100 0.0 1013169
21:00−26с249882 0.1 101698
10 марта, ср
ср1000:00−30с23990 0.0 101727
03:00−32ссз22990 0.0 101920
06:00−32ссз22990 0.0 102021
09:00−25сз23930 0.0 1019244
12:00−18з248530 0.0 1018488
15:00−16з478827 0.0 1017596
18:00−17з41095100 0.0 1016448
21:00−20з31197100 0.1 1016373